[sarex] 2 Line ISS Keps 1-27

Dave Larsen PhD doc at volcano.net
Tue Jan 27 05:41:05 PST 2009


ISS
1 25544U 98067A   09027.19841559  .00009198  00000-0  77646-4 0  1500
2 25544 051.6433 308.7347 0007770 315.2448 193.1079 15.70605173583779



More information about the SAREX mailing list